Location: ActonStarParty
(42.4766°N, 71.4538°W)
Time: 11:08:31
(UTC-05:00)

ATLAS 5 CENTAUR R/B - Visible Passes

Search period start: 31 January 2015 00:00
Search period end: 10 February 2015 00:00
Orbit: 368 x 14888 km, 60.9° (Epoch: 04 January)

Date Brightness Start Highest point End Pass type
(mag) Time Alt. Az. Time Alt. Az. Time Alt. Az.
31 Jan 5.4 18:30:12 10° WNW 19:55:20 62° NNE 20:01:04 49° ENE visible
01 Feb 6.8 00:25:43 10° NW 00:35:58 14° WNW 00:35:58 14° WNW visible
01 Feb 5.8 16:44:33 10° W 18:41:47 56° N 18:55:29 26° ENE visible
01 Feb 6.2 23:07:47 10° NW 23:30:23 30° WNW 23:30:23 30° WNW visible
02 Feb 6.3 15:08:52 10° WSW 17:25:23 57° N 17:49:54 10° ENE visible
02 Feb 5.6 21:50:21 10° NW 22:24:47 53° W 22:24:47 53° W visible
03 Feb 5.1 20:29:21 10° NW 21:19:10 87° WSW 21:19:10 87° WSW visible
04 Feb 5.1 19:00:04 10° WNW 20:09:34 70° NNE 20:13:32 57° E visible
05 Feb 5.5 17:17:48 10° WNW 18:57:24 59° NNE 19:07:52 30° E visible
05 Feb 6.4 23:24:49 10° NW 23:42:28 20° W 23:42:45 20° W visible
06 Feb 6.0 15:34:31 10° W 17:42:33 56° N 18:02:13 12° ENE visible
06 Feb 5.7 22:07:33 10° NW 22:37:05 40° W 22:37:05 40° W visible
07 Feb 5.0 20:48:50 10° NW 21:31:09 69° WSW 21:31:23 69° WSW visible
08 Feb 4.8 19:24:47 10° NW 20:22:37 82° NE 20:25:41 63° ESE visible
09 Feb 5.3 17:49:52 10° WNW 19:11:45 64° NNE 19:19:57 34° E visible
